This is the latest recevied weather packets stored in our database for station/object N3LF. If no packets are shown the sender has not sent any weather packets the latest 10 day(s).
| Time | Temp. | Humidity | Pressure | Rain* | Wind** | Luminosity | Snow |
|---|---|---|---|---|---|---|---|
| 1777545383 | 9.44° C | 83% | 1018.9 hPa | 0 mm | - | 0 W/m² | - |
| 1777545081 | 9.44° C | 82% | 1018.9 hPa | 0 mm | - | 0 W/m² | - |
| 1777544777 | 9.44° C | 83% | 1018.6 hPa | 0 mm | - | 0 W/m² | - |
| 1777544473 | 9.44° C | 82% | 1018.5 hPa | 0 mm | - | 0 W/m² | - |
| 1777544169 | 9.44° C | 83% | 1018.8 hPa | 0 mm | - | 0 W/m² | - |
| 1777543868 | 9.44° C | 83% | 1018.6 hPa | 0 mm | - | 0 W/m² | - |
| 1777543563 | 9.44° C | 87% | 1018.8 hPa | 0 mm | - | 0 W/m² | - |
| 1777543259 | 9.44° C | 87% | 1018.7 hPa | 0 mm | - | 0 W/m² | - |
| 1777542955 | 8.89° C | 89% | 1018.6 hPa | 0 mm | - | 0 W/m² | - |
| 1777542652 | 8.89° C | 87% | 1018.7 hPa | 0 mm | - | 0 W/m² | - |
| 1777542348 | 9.44° C | 87% | 1018.6 hPa | 0 mm | - | 0 W/m² | - |
| 1777542045 | 9.44° C | 85% | 1018.5 hPa | 0 mm | - | 0 W/m² | - |
| 1777541743 | 9.44° C | 85% | 1018.6 hPa | 0 mm | - | 0 W/m² | - |
| 1777541439 | 9.44° C | 87% | 1018.5 hPa | 0 mm | - | 0 W/m² | - |
| 1777541135 | 10° C | 84% | 1018.4 hPa | 0 mm | - | 0 W/m² | - |
| 1777540833 | 10° C | 82% | 1018.2 hPa | 0 mm | - | 0 W/m² | - |
| 1777540530 | 10.56° C | 80% | 1018.2 hPa | 0 mm | - | 0 W/m² | - |
| 1777540226 | 10.56° C | 80% | 1018.1 hPa | 0 mm | - | 0 W/m² | - |
| 1777539921 | 10.56° C | 79% | 1018.1 hPa | 0 mm | - | 0 W/m² | - |
| 1777539618 | 10.56° C | 80% | 1018.1 hPa | 0 mm | - | 0 W/m² | - |
| 1777539314 | 10.56° C | 79% | 1017.8 hPa | 0 mm | - | 0 W/m² | - |
| 1777539011 | 10.56° C | 80% | 1017.8 hPa | 0 mm | - | 0 W/m² | - |
| 1777538707 | 10.56° C | 80% | 1017.8 hPa | 0 mm | - | 0 W/m² | - |
| 1777538402 | 10.56° C | 79% | 1018 hPa | 0 mm | - | 0 W/m² | - |
| 1777538098 | 10.56° C | 80% | 1018 hPa | 0 mm | - | 0 W/m² | - |
* Rain latest hour (hover to see other rain measurements)
** Current wind speed in m/s (hover to see current wind gust speed)